date,absolute water-level (cm)
30/10/2019 06:00,-130.658
30/10/2019 06:30,-130.775
30/10/2019 07:00,-130.542
30/10/2019 07:30,-130.717
30/10/2019 08:00,-130.45
30/10/2019 08:30,-131.042
30/10/2019 09:00,-130.9
30/10/2019 09:30,-131.208
30/10/2019 10:00,-131.792
30/10/2019 10:30,-131.267
30/10/2019 11:00,-131.733
30/10/2019 11:30,-134.017
30/10/2019 12:00,-130.942
30/10/2019 12:30,-129.75
30/10/2019 13:00,-129.6916
30/10/2019 13:30,-129.658
30/10/2019 14:00,-129.892
30/10/2019 14:30,-130.658
30/10/2019 15:00,-130.042
30/10/2019 15:30,-129.842
30/10/2019 16:00,-129.867
30/10/2019 16:30,-129.842
30/10/2019 17:00,-129.6648
30/10/2019 17:30,-129.7064
30/10/2019 18:00,-129.7264
30/10/2019 18:30,-129.7098
30/10/2019 19:00,-129.6448
30/10/2019 19:30,-129.7298
30/10/2019 20:00,-129.6998
30/10/2019 20:30,-129.7752
30/10/2019 21:00,-129.7502
30/10/2019 21:30,-129.687
30/10/2019 22:00,-129.727
30/10/2019 22:30,-129.792
30/10/2019 23:00,-129.757
30/10/2019 23:30,-129.792
31/10/2019 00:00,-129.687
31/10/2019 00:30,-129.7886
31/10/2019 01:00,-129.7536
31/10/2019 01:30,-129.7252
31/10/2019 02:00,-129.7486
31/10/2019 02:30,-129.755
31/10/2019 03:00,-129.76
31/10/2019 03:30,-129.76
31/10/2019 04:00,-129.835
31/10/2019 04:30,-129.7884
31/10/2019 05:00,-129.857
31/10/2019 05:30,-129.9016
31/10/2019 06:00,-129.9466
31/10/2019 06:30,-130.408
31/10/2019 07:00,-130
31/10/2019 07:30,-130.425
31/10/2019 08:00,-130.55
31/10/2019 08:30,-130.95
31/10/2019 09:00,-130.95
31/10/2019 09:30,-131.3
31/10/2019 10:00,-131.3
31/10/2019 10:30,-130.958
31/10/2019 11:00,-130.892
31/10/2019 11:30,-131.592
31/10/2019 12:00,-131.35
31/10/2019 12:30,-131.533
31/10/2019 13:00,-131.408
31/10/2019 13:30,-131.467
31/10/2019 14:00,-131.267
31/10/2019 14:30,-130.742
31/10/2019 15:00,-130.017
31/10/2019 15:30,-130.042
31/10/2019 16:00,-130.192
31/10/2019 16:30,-130.192
31/10/2019 17:00,-129.6964
31/10/2019 17:30,-129.7098
31/10/2019 18:00,-129.792
31/10/2019 18:30,-129.733
31/10/2019 19:00,-129.5952
31/10/2019 19:30,-129.758
31/10/2019 20:00,-129.625
31/10/2019 20:30,-129.875
31/10/2019 21:00,-129.825
31/10/2019 21:30,-129.583
31/10/2019 22:00,-129.65
31/10/2019 22:30,-129.475
31/10/2019 23:00,-129.583
31/10/2019 23:30,-129.758
01/11/2019 00:00,-129.817
01/11/2019 00:30,-130.033
01/11/2019 01:00,-129.758
01/11/2019 01:30,-129.583
01/11/2019 02:00,-129.817
01/11/2019 02:30,-129.917
01/11/2019 03:00,-129.642
01/11/2019 03:30,-129.567
01/11/2019 04:00,-130.142
01/11/2019 04:30,-129.858
01/11/2019 05:00,-130.033
01/11/2019 05:30,-130
01/11/2019 06:00,-130.025
01/11/2019 06:30,-129.942
01/11/2019 07:00,-130.117
01/11/2019 07:30,-129.967
01/11/2019 08:00,-129.858
01/11/2019 08:30,-129.85
01/11/2019 09:00,-130.025
01/11/2019 09:30,-129.975
01/11/2019 10:00,-129.908
01/11/2019 10:30,-130.083
01/11/2019 11:00,-128.975
01/11/2019 11:30,-129.183
01/11/2019 12:00,-128.483
01/11/2019 12:30,-128.342
01/11/2019 13:00,-128.017
01/11/2019 13:30,-127.575
01/11/2019 14:00,-127.75
01/11/2019 14:30,-127.6
01/11/2019 15:00,-127.7
01/11/2019 15:30,-127.425
01/11/2019 16:00,-127.225
01/11/2019 16:30,-127.6
01/11/2019 17:00,-127.467
01/11/2019 17:30,-126.992
01/11/2019 18:00,-127.083
01/11/2019 18:30,-126.825
01/11/2019 19:00,-126.325
01/11/2019 19:30,-126.417
01/11/2019 20:00,-126.033
01/11/2019 20:30,-126.208
01/11/2019 21:00,-126.033
01/11/2019 21:30,-126.208
01/11/2019 22:00,-126.158
01/11/2019 22:30,-125.75
01/11/2019 23:00,-125.625
01/11/2019 23:30,-125.858
02/11/2019 00:00,-125.508
02/11/2019 00:30,-124.75
02/11/2019 01:00,-124.575
02/11/2019 01:30,-124.433
02/11/2019 02:00,-124.458
02/11/2019 02:30,-124.258
02/11/2019 03:00,-123.908
02/11/2019 03:30,-124.05
02/11/2019 04:00,-124.167
02/11/2019 04:30,-124.117
02/11/2019 05:00,-123.817
02/11/2019 05:30,-123.758
02/11/2019 06:00,-123.525
02/11/2019 06:30,-123.142
02/11/2019 07:00,-123.092
02/11/2019 07:30,-123.317
02/11/2019 08:00,-122.583
02/11/2019 08:30,-122.733
02/11/2019 09:00,-122.383
02/11/2019 09:30,-122.208
02/11/2019 10:00,-122
02/11/2019 10:30,-121.908
02/11/2019 11:00,-122.083
02/11/2019 11:30,-121.733
02/11/2019 12:00,-121.742
02/11/2019 12:30,-121.442
02/11/2019 13:00,-121.525
02/11/2019 13:30,-121.2
02/11/2019 14:00,-120.625
02/11/2019 14:30,-120.325
02/11/2019 15:00,-120.858
02/11/2019 15:30,-120.15
02/11/2019 16:00,-119.842
02/11/2019 16:30,-119.342
02/11/2019 17:00,-118.675
02/11/2019 17:30,-118
02/11/2019 18:00,-117.567
02/11/2019 18:30,-117.508
02/11/2019 19:00,-117.225
02/11/2019 19:30,-117.017
02/11/2019 20:00,-116.758
02/11/2019 20:30,-116.583
02/11/2019 21:00,-116.083
02/11/2019 21:30,-115.825
02/11/2019 22:00,-115.675
02/11/2019 22:30,-115.6
02/11/2019 23:00,-115.15
02/11/2019 23:30,-114.975
03/11/2019 00:00,-114.625
03/11/2019 00:30,-114.425
03/11/2019 01:00,-113.9
03/11/2019 01:30,-113.492
03/11/2019 02:00,-112.942
03/11/2019 02:30,-112.617
03/11/2019 03:00,-111.975
03/11/2019 03:30,-111.45
03/11/2019 04:00,-111.517
03/11/2019 04:30,-111.042
03/11/2019 05:00,-110
03/11/2019 05:30,-109.942
03/11/2019 06:00,-110.317
03/11/2019 06:30,-109.908
03/11/2019 07:00,-110.483
03/11/2019 07:30,-110.308
03/11/2019 08:00,-110.575
03/11/2019 08:30,-110.4
03/11/2019 09:00,-110.275
03/11/2019 09:30,-110.45
03/11/2019 10:00,-110.558
03/11/2019 10:30,-110.333
03/11/2019 11:00,-110.208
03/11/2019 11:30,-110.267
03/11/2019 12:00,-110.067
03/11/2019 12:30,-109.6
03/11/2019 13:00,-109.45
03/11/2019 13:30,-109.308
03/11/2019 14:00,-108.833
03/11/2019 14:30,-108.483
03/11/2019 15:00,-108.375
03/11/2019 15:30,-108.2
03/11/2019 16:00,-108.075
03/11/2019 16:30,-107.142
03/11/2019 17:00,-106.917
03/11/2019 17:30,-106.658
03/11/2019 18:00,-106.075
03/11/2019 18:30,-106.275
03/11/2019 19:00,-105.967
03/11/2019 19:30,-105.933
03/11/2019 20:00,-105.758
03/11/2019 20:30,-105.85
03/11/2019 21:00,-105.65
03/11/2019 21:30,-105.65
03/11/2019 22:00,-105.067
03/11/2019 22:30,-105.417
03/11/2019 23:00,-105.117
03/11/2019 23:30,-105.15
04/11/2019 00:00,-104.975
04/11/2019 00:30,-104.8
04/11/2019 01:00,-104.625
04/11/2019 01:30,-104.275
04/11/2019 02:00,-104.275
04/11/2019 02:30,-104.4
04/11/2019 03:00,-104.275
04/11/2019 03:30,-104.167
04/11/2019 04:00,-104.167
04/11/2019 04:30,-103.983
04/11/2019 05:00,-103.783
04/11/2019 05:30,-104
04/11/2019 06:00,-104.075
04/11/2019 06:30,-104.317
04/11/2019 07:00,-104.567
04/11/2019 07:30,-104.808
04/11/2019 08:00,-105.083
04/11/2019 08:30,-105.317
04/11/2019 09:00,-105.167
04/11/2019 09:30,-105.317
04/11/2019 10:00,-105.75
04/11/2019 10:30,-105.575
04/11/2019 11:00,-105.483
04/11/2019 11:30,-105.833
04/11/2019 12:00,-105.542
04/11/2019 12:30,-105.6
04/11/2019 13:00,-105.075
04/11/2019 13:30,-105.308
04/11/2019 14:00,-105.133
04/11/2019 14:30,-105.192
04/11/2019 15:00,-104.633
04/11/2019 15:30,-104.458
04/11/2019 16:00,-104.642
04/11/2019 16:30,-103.933
04/11/2019 17:00,-103.65
04/11/2019 17:30,-103.3
04/11/2019 18:00,-103.042
04/11/2019 18:30,-102.833
04/11/2019 19:00,-102.933
04/11/2019 19:30,-102.725
04/11/2019 20:00,-102.525
04/11/2019 20:30,-102.725
04/11/2019 21:00,-102.317
04/11/2019 21:30,-102.267
04/11/2019 22:00,-102.592
04/11/2019 22:30,-102.292
04/11/2019 23:00,-101.9884
04/11/2019 23:30,-102
05/11/2019 00:00,-102
05/11/2019 00:30,-102.175
05/11/2019 01:00,-101.8
05/11/2019 01:30,-101.875
05/11/2019 02:00,-101.8
05/11/2019 02:30,-101.8
05/11/2019 03:00,-102.125
05/11/2019 03:30,-101.5686
05/11/2019 04:00,-101.547
05/11/2019 04:30,-101.592
05/11/2019 05:00,-101.358
05/11/2019 05:30,-101.833
05/11/2019 06:00,-101.8
05/11/2019 06:30,-102.15
05/11/2019 07:00,-102.35
05/11/2019 07:30,-102.875
05/11/2019 08:00,-103.05
05/11/2019 08:30,-102.8
05/11/2019 09:00,-103.325
05/11/2019 09:30,-103.158
05/11/2019 10:00,-103.383
05/11/2019 10:30,-103.617
05/11/2019 11:00,-103.5
05/11/2019 11:30,-103.558
05/11/2019 12:00,-103.558
05/11/2019 12:30,-103.317
05/11/2019 13:00,-103.175
05/11/2019 13:30,-103
05/11/2019 14:00,-103.233
05/11/2019 14:30,-102.558
05/11/2019 15:00,-103.058
05/11/2019 15:30,-103.117
05/11/2019 16:00,-102.533
05/11/2019 16:30,-102.358
05/11/2019 17:00,-101.75
05/11/2019 17:30,-101.167
05/11/2019 18:00,-101.342
05/11/2019 18:30,-101.292
05/11/2019 19:00,-101.292
05/11/2019 19:30,-101.058
05/11/2019 20:00,-100.825
05/11/2019 20:30,-100.825
05/11/2019 21:00,-100.892
05/11/2019 21:30,-100.717
05/11/2019 22:00,-100.417
05/11/2019 22:30,-100.417
05/11/2019 23:00,-100.542
05/11/2019 23:30,-100.517
06/11/2019 00:00,-100.575
06/11/2019 00:30,-100.4
06/11/2019 01:00,-100.4
06/11/2019 01:30,-100.275
06/11/2019 02:00,-100.0614
06/11/2019 02:30,-100.108
06/11/2019 03:00,-100.01
06/11/2019 03:30,-100.05
06/11/2019 04:00,-99.992
06/11/2019 04:30,-100.167
06/11/2019 05:00,-100.167
06/11/2019 05:30,-99.933
06/11/2019 06:00,-100.258
06/11/2019 06:30,-100.575
06/11/2019 07:00,-100.975
06/11/2019 07:30,-101.5
06/11/2019 08:00,-101.85
06/11/2019 08:30,-101.575
06/11/2019 09:00,-101.875
06/11/2019 09:30,-101.75
06/11/2019 10:00,-102.108
06/11/2019 10:30,-102.108
06/11/2019 11:00,-102.217
06/11/2019 11:30,-102.425
06/11/2019 12:00,-101.858
06/11/2019 12:30,-101.892
06/11/2019 13:00,-102.417
06/11/2019 13:30,-101.717
06/11/2019 14:00,-101.775
06/11/2019 14:30,-101.517
06/11/2019 15:00,-100.842
06/11/2019 15:30,-100.642
06/11/2019 16:00,-100.467
06/11/2019 16:30,-100.117
06/11/2019 17:00,-99.883
06/11/2019 17:30,-99.833
06/11/2019 18:00,-99.6
06/11/2019 18:30,-99.775
06/11/2019 19:00,-99.6
06/11/2019 19:30,-99.312
06/11/2019 20:00,-99.433
06/11/2019 20:30,-99.308
06/11/2019 21:00,-99.433
06/11/2019 21:30,-99.483
06/11/2019 22:00,-99.2002
06/11/2019 22:30,-99.2002
06/11/2019 23:00,-99.433
06/11/2019 23:30,-99.258
07/11/2019 00:00,-99.258
07/11/2019 00:30,-99.1102
07/11/2019 01:00,-99.167
07/11/2019 01:30,-99.117
07/11/2019 02:00,-99.0448
07/11/2019 02:30,-99.0348
07/11/2019 03:00,-99.342
07/11/2019 03:30,-98.992
07/11/2019 04:00,-98.9152
07/11/2019 04:30,-99.058
07/11/2019 05:00,-98.908
07/11/2019 05:30,-98.885
07/11/2019 06:00,-98.917
07/11/2019 06:30,-99.492
07/11/2019 07:00,-99.558
07/11/2019 07:30,-99.808
07/11/2019 08:00,-100.008
07/11/2019 08:30,-100.467
07/11/2019 09:00,-100.417
07/11/2019 09:30,-100.817
07/11/2019 10:00,-100.767
07/11/2019 10:30,-100.7
07/11/2019 11:00,-100.875
07/11/2019 11:30,-101.108
07/11/2019 12:00,-101.042
07/11/2019 12:30,-100.817
07/11/2019 13:00,-100.725
07/11/2019 13:30,-100.725
07/11/2019 14:00,-100.55
07/11/2019 14:30,-100.608
07/11/2019 15:00,-100.608
07/11/2019 15:30,-100.083
07/11/2019 16:00,-99.65
07/11/2019 16:30,-99.125
07/11/2019 17:00,-99.217
07/11/2019 17:30,-98.783
07/11/2019 18:00,-99.083
07/11/2019 18:30,-98.9
07/11/2019 19:00,-98.792
07/11/2019 19:30,-98.267
07/11/2019 20:00,-98.442
07/11/2019 20:30,-98.408
07/11/2019 21:00,-98.233
07/11/2019 21:30,-98.208
07/11/2019 22:00,-98.208
07/11/2019 22:30,-98.0366
07/11/2019 23:00,-98.0716
07/11/2019 23:30,-98.267
08/11/2019 00:00,-98.1134
08/11/2019 00:30,-98.0584
08/11/2019 01:00,-98.125
08/11/2019 01:30,-98.125
08/11/2019 02:00,-98.15
08/11/2019 02:30,-97.877
08/11/2019 03:00,-97.917
08/11/2019 03:30,-97.877
08/11/2019 04:00,-97.877
08/11/2019 04:30,-97.9052
08/11/2019 05:00,-97.9052
08/11/2019 05:30,-97.8586
08/11/2019 06:00,-98.275
08/11/2019 06:30,-98.367
08/11/2019 07:00,-98.642
08/11/2019 07:30,-98.967
08/11/2019 08:00,-99.317
08/11/2019 08:30,-99.367
08/11/2019 09:00,-99.592
08/11/2019 09:30,-99.592
08/11/2019 10:00,-99.95
08/11/2019 10:30,-100.058
08/11/2019 11:00,-100.058
08/11/2019 11:30,-99.767
08/11/2019 12:00,-100.15
08/11/2019 12:30,-99.825
08/11/2019 13:00,-99.883
08/11/2019 13:30,-100.117
08/11/2019 14:00,-99.383
08/11/2019 14:30,-98.858
08/11/2019 15:00,-98.808
08/11/2019 15:30,-98.683
08/11/2019 16:00,-98.258
08/11/2019 16:30,-98.283
08/11/2019 17:00,-98.108
08/11/2019 17:30,-98.025
08/11/2019 18:00,-97.917
08/11/2019 18:30,-97.533
08/11/2019 19:00,-97.358
08/11/2019 19:30,-97.3
08/11/2019 20:00,-97.2186
08/11/2019 20:30,-97.242
08/11/2019 21:00,-97.367
08/11/2019 21:30,-97.212
08/11/2019 22:00,-97.342
08/11/2019 22:30,-97.417
08/11/2019 23:00,-97.367
08/11/2019 23:30,-97.217
09/11/2019 00:00,-97.45
09/11/2019 00:30,-97.1
09/11/2019 01:00,-97.225
09/11/2019 01:30,-97.45
09/11/2019 02:00,-97.125
09/11/2019 02:30,-97.333
09/11/2019 03:00,-97.358
09/11/2019 03:30,-97.333
09/11/2019 04:00,-97.275
09/11/2019 04:30,-97.242
09/11/2019 05:00,-97.067
09/11/2019 05:30,-97.367
09/11/2019 06:00,-96.958
09/11/2019 06:30,-97.533
09/11/2019 07:00,-97.658
09/11/2019 07:30,-98.033
09/11/2019 08:00,-98.025
09/11/2019 08:30,-98.375
09/11/2019 09:00,-98.633
09/11/2019 09:30,-98.608
09/11/2019 10:00,-98.658
09/11/2019 10:30,-98.542
09/11/2019 11:00,-98.542
09/11/2019 11:30,-98.717
09/11/2019 12:00,-97.55
09/11/2019 12:30,-96.95
09/11/2019 13:00,-96.858
09/11/2019 13:30,-96.883
09/11/2019 14:00,-97.033
09/11/2019 14:30,-97.158
09/11/2019 15:00,-96.883
09/11/2019 15:30,-96.983
09/11/2019 16:00,-97.033
09/11/2019 16:30,-96.95
09/11/2019 17:00,-96.925
09/11/2019 17:30,-96.775
09/11/2019 18:00,-96.5748
09/11/2019 18:30,-96.667
09/11/2019 19:00,-96.608
09/11/2019 19:30,-96.608
09/11/2019 20:00,-96.515
09/11/2019 20:30,-96.55
09/11/2019 21:00,-96.55
09/11/2019 21:30,-96.758
09/11/2019 22:00,-96.55
09/11/2019 22:30,-96.55
09/11/2019 23:00,-96.433
09/11/2019 23:30,-96.583
10/11/2019 00:00,-96.2234
10/11/2019 00:30,-96.2534
10/11/2019 01:00,-96.2184
10/11/2019 01:30,-96.23
10/11/2019 02:00,-96.225
10/11/2019 02:30,-96.26
10/11/2019 03:00,-96.265
10/11/2019 03:30,-96.26
10/11/2019 04:00,-96.342
10/11/2019 04:30,-96.207
10/11/2019 05:00,-96.1952
10/11/2019 05:30,-96.2002
10/11/2019 06:00,-96.483
10/11/2019 06:30,-96.675
10/11/2019 07:00,-97.075
10/11/2019 07:30,-97.042
10/11/2019 08:00,-96.867
10/11/2019 08:30,-97.042
10/11/2019 09:00,-97.267
10/11/2019 09:30,-97.625
10/11/2019 10:00,-97.85
10/11/2019 10:30,-97.908
10/11/2019 11:00,-97.958
10/11/2019 11:30,-97.792
10/11/2019 12:00,-98.075
10/11/2019 12:30,-97.783
10/11/2019 13:00,-97.933
10/11/2019 13:30,-97.842
10/11/2019 14:00,-97.925
10/11/2019 14:30,-97.925
10/11/2019 15:00,-97.75
10/11/2019 15:30,-97.4
10/11/2019 16:00,-97.225
10/11/2019 16:30,-96.467
10/11/2019 17:00,-96.442
10/11/2019 17:30,-96.217
10/11/2019 18:00,-95.833
10/11/2019 18:30,-95.833
10/11/2019 19:00,-96.1
10/11/2019 19:30,-96.275
10/11/2019 20:00,-95.842
10/11/2019 20:30,-95.667
10/11/2019 21:00,-95.5066
10/11/2019 21:30,-95.642
10/11/2019 22:00,-95.512
10/11/2019 22:30,-95.642
10/11/2019 23:00,-95.517
10/11/2019 23:30,-95.525
11/11/2019 00:00,-95.345
11/11/2019 00:30,-95.37
11/11/2019 01:00,-95.375
11/11/2019 01:30,-95.223
11/11/2019 02:00,-95.433
11/11/2019 02:30,-95.1764
11/11/2019 03:00,-95.258
11/11/2019 03:30,-95.168
11/11/2019 04:00,-95.2214
11/11/2019 04:30,-95.2164
11/11/2019 05:00,-95.1398
11/11/2019 05:30,-95.2098
11/11/2019 06:00,-95.233
11/11/2019 06:30,-95.583
11/11/2019 07:00,-95.958
11/11/2019 07:30,-96.308
11/11/2019 08:00,-96.683
11/11/2019 08:30,-96.558
11/11/2019 09:00,-96.858
11/11/2019 09:30,-97.033
11/11/2019 10:00,-96.683
11/11/2019 10:30,-96.367
11/11/2019 11:00,-97
11/11/2019 11:30,-97.025
11/11/2019 12:00,-97.083
11/11/2019 12:30,-97.492
11/11/2019 13:00,-97.167
11/11/2019 13:30,-97.192
11/11/2019 14:00,-97.25
11/11/2019 14:30,-97.225
11/11/2019 15:00,-97.05
11/11/2019 15:30,-96.175
11/11/2019 16:00,-95.8
11/11/2019 16:30,-95.392
11/11/2019 17:00,-95.633
11/11/2019 17:30,-95.633
11/11/2019 18:00,-95.225
11/11/2019 18:30,-95.05
11/11/2019 19:00,-95.117
11/11/2019 19:30,-95.167
11/11/2019 20:00,-95.167
11/11/2019 20:30,-94.9352
11/11/2019 21:00,-95.233
11/11/2019 21:30,-95.258
11/11/2019 22:00,-95.083
11/11/2019 22:30,-95.058
11/11/2019 23:00,-94.908
11/11/2019 23:30,-94.8234
12/11/2019 00:00,-94.942
12/11/2019 00:30,-94.6948
12/11/2019 01:00,-95.05
12/11/2019 01:30,-95.025
12/11/2019 02:00,-94.875
12/11/2019 02:30,-95.05
12/11/2019 03:00,-95
12/11/2019 03:30,-94.942
12/11/2019 04:00,-94.942
12/11/2019 04:30,-94.708
12/11/2019 05:00,-95.058
12/11/2019 05:30,-94.825
12/11/2019 06:00,-95
12/11/2019 06:30,-94.825
12/11/2019 07:00,-95.092
12/11/2019 07:30,-94.967
12/11/2019 08:00,-95.267
12/11/2019 08:30,-95.433
12/11/2019 09:00,-95.433
12/11/2019 09:30,-96.042
12/11/2019 10:00,-96.042
12/11/2019 10:30,-96.267
12/11/2019 11:00,-96.15
12/11/2019 11:30,-96.208
12/11/2019 12:00,-96.067
12/11/2019 12:30,-95.192
12/11/2019 13:00,-94.992
12/11/2019 13:30,-94.125
12/11/2019 14:00,-92.775
12/11/2019 14:30,-92.425
12/11/2019 15:00,-92.425
12/11/2019 15:30,-92.483
12/11/2019 16:00,-92.775
12/11/2019 16:30,-92.667
12/11/2019 17:00,-92.642
12/11/2019 17:30,-92.142
12/11/2019 18:00,-92.292
12/11/2019 18:30,-92.233
12/11/2019 19:00,-92.258
12/11/2019 19:30,-91.975
12/11/2019 20:00,-92.117
12/11/2019 20:30,-91.942
12/11/2019 21:00,-91.767
12/11/2019 21:30,-91.767
12/11/2019 22:00,-91.683
12/11/2019 22:30,-91.683
12/11/2019 23:00,-91.533
12/11/2019 23:30,-91.683
13/11/2019 00:00,-91.742
13/11/2019 00:30,-91.617
13/11/2019 01:00,-91.217
13/11/2019 01:30,-91.392
13/11/2019 02:00,-91.392
13/11/2019 02:30,-91.675
13/11/2019 03:00,-91.442
13/11/2019 03:30,-91.092
13/11/2019 04:00,-90.683
13/11/2019 04:30,-90.808
13/11/2019 05:00,-90.25
13/11/2019 05:30,-90.525
13/11/2019 06:00,-90.717
13/11/2019 06:30,-90.842
13/11/2019 07:00,-90.683
13/11/2019 07:30,-90.683
13/11/2019 08:00,-90.483
13/11/2019 08:30,-90.325
13/11/2019 09:00,-89.75
13/11/2019 09:30,-89.742
13/11/2019 10:00,-89.742
13/11/2019 10:30,-89.325
13/11/2019 11:00,-88.975
13/11/2019 11:30,-89.333
13/11/2019 12:00,-88.858
13/11/2019 12:30,-89.067
13/11/2019 13:00,-87.842
13/11/2019 13:30,-87.142
13/11/2019 14:00,-86.442
13/11/2019 14:30,-86.9
13/11/2019 15:00,-86.492
13/11/2019 15:30,-86.317
13/11/2019 16:00,-85.542
13/11/2019 16:30,-84.375
13/11/2019 17:00,-82.45
13/11/2019 17:30,-82.275
13/11/2019 18:00,-82.042
13/11/2019 18:30,-81.958
13/11/2019 19:00,-81.725
13/11/2019 19:30,-82.225
13/11/2019 20:00,-81.667
13/11/2019 20:30,-81.608
13/11/2019 21:00,-81.608
13/11/2019 21:30,-81.383
13/11/2019 22:00,-81.383
13/11/2019 22:30,-81.033
13/11/2019 23:00,-81.033
13/11/2019 23:30,-81.033
14/11/2019 00:00,-80.658
14/11/2019 00:30,-81.008
14/11/2019 01:00,-80.858
14/11/2019 01:30,-80.208
14/11/2019 02:00,-79.858
14/11/2019 02:30,-78.675
14/11/2019 03:00,-77.15
14/11/2019 03:30,-75.258
14/11/2019 04:00,-72.275
14/11/2019 04:30,-71.467
14/11/2019 05:00,-71.342
14/11/2019 05:30,-71.617
14/11/2019 06:00,-71.458
14/11/2019 06:30,-71.525
14/11/2019 07:00,-71.467
14/11/2019 07:30,-71.667
14/11/2019 08:00,-71.558
14/11/2019 08:30,-71.733
14/11/2019 09:00,-71.658
14/11/2019 09:30,-72.017
14/11/2019 10:00,-71.842
14/11/2019 10:30,-72.017
14/11/2019 11:00,-71.95
14/11/2019 11:30,-71.9
14/11/2019 12:00,-71.983
14/11/2019 12:30,-72.3
14/11/2019 13:00,-72.558
14/11/2019 13:30,-72.442
14/11/2019 14:00,-72.267
14/11/2019 14:30,-72.142
14/11/2019 15:00,-72.025
14/11/2019 15:30,-72.2
14/11/2019 16:00,-72.15
14/11/2019 16:30,-71.6
14/11/2019 17:00,-71.192
14/11/2019 17:30,-70.958
14/11/2019 18:00,-70.958
14/11/2019 18:30,-70.85
14/11/2019 19:00,-70.617
14/11/2019 19:30,-70.817
14/11/2019 20:00,-70.617
14/11/2019 20:30,-70.642
14/11/2019 21:00,-70.533
14/11/2019 21:30,-70.3802
14/11/2019 22:00,-70.533
14/11/2019 22:30,-70.3584
14/11/2019 23:00,-70.3534
14/11/2019 23:30,-70.3534
15/11/2019 00:00,-70.392
15/11/2019 00:30,-70.2748
15/11/2019 01:00,-70.2448
15/11/2019 01:30,-70.2698
15/11/2019 02:00,-70.2564
15/11/2019 02:30,-70.2464
15/11/2019 03:00,-70.1798
15/11/2019 03:30,-70.2098
15/11/2019 04:00,-70.2448
15/11/2019 04:30,-70.2348
15/11/2019 05:00,-70.2048
15/11/2019 05:30,-70.238
15/11/2019 06:00,-70.333
15/11/2019 06:30,-70.475
15/11/2019 07:00,-70.525
15/11/2019 07:30,-71.025
15/11/2019 08:00,-71.317
15/11/2019 08:30,-71.375
15/11/2019 09:00,-71.55
15/11/2019 09:30,-71.775
15/11/2019 10:00,-71.483
15/11/2019 10:30,-71.533
15/11/2019 11:00,-71.942
15/11/2019 11:30,-72.525
15/11/2019 12:00,-71.825
15/11/2019 12:30,-72.058
15/11/2019 13:00,-72.058
15/11/2019 13:30,-72.117
15/11/2019 14:00,-71.967
15/11/2019 14:30,-71.967
15/11/2019 15:00,-71.875
15/11/2019 15:30,-71.85
15/11/2019 16:00,-71.392
15/11/2019 16:30,-70.917
15/11/2019 17:00,-70.867
15/11/2019 17:30,-70.2902
15/11/2019 18:00,-70.2852
15/11/2019 18:30,-70.4
15/11/2019 19:00,-70.375
15/11/2019 19:30,-70.292
15/11/2019 20:00,-70.2034
15/11/2019 20:30,-70.1916
15/11/2019 21:00,-70.2252
15/11/2019 21:30,-70.1502
15/11/2019 22:00,-70.1502
15/11/2019 22:30,-70.152
15/11/2019 23:00,-70.157
15/11/2019 23:30,-70.162
16/11/2019 00:00,-70.127
16/11/2019 00:30,-70.092
16/11/2019 01:00,-70.127
16/11/2019 01:30,-70.122
16/11/2019 02:00,-70.2036
16/11/2019 02:30,-70.092
16/11/2019 03:00,-70.087
16/11/2019 03:30,-70.092
16/11/2019 04:00,-70.122
16/11/2019 04:30,-70.087
16/11/2019 05:00,-70.122
16/11/2019 05:30,-70.1152
16/11/2019 06:00,-70.17
16/11/2019 06:30,-70.2236
16/11/2019 07:00,-70.35
16/11/2019 07:30,-70.792
16/11/2019 08:00,-71.142
16/11/2019 08:30,-71.075
16/11/2019 09:00,-71.475
16/11/2019 09:30,-71.6
16/11/2019 10:00,-71.6
16/11/2019 10:30,-72.183
16/11/2019 11:00,-72.417
16/11/2019 11:30,-72.292
16/11/2019 12:00,-72.225
16/11/2019 12:30,-72
16/11/2019 13:00,-72.058
16/11/2019 13:30,-71.883
16/11/2019 14:00,-71.967
16/11/2019 14:30,-72.15
16/11/2019 15:00,-72.025
16/11/2019 15:30,-71.675
16/11/2019 16:00,-71.1
16/11/2019 16:30,-71.042
16/11/2019 17:00,-70.633
16/11/2019 17:30,-70.458
16/11/2019 18:00,-70.285
16/11/2019 18:30,-70.2934
16/11/2019 19:00,-70.6384
16/11/2019 19:30,-70.668
16/11/2019 20:00,-70.675
16/11/2019 20:30,-70.725
16/11/2019 21:00,-70.76
16/11/2019 21:30,-70.735
16/11/2019 22:00,-70.7814
16/11/2019 22:30,-70.7464
16/11/2019 23:00,-70.7464
16/11/2019 23:30,-70.753
17/11/2019 00:00,-70.758
17/11/2019 00:30,-70.7698
17/11/2019 01:00,-70.7348
17/11/2019 01:30,-70.7298
17/11/2019 02:00,-70.7898
17/11/2019 02:30,-70.7648
17/11/2019 03:00,-70.7548
17/11/2019 03:30,-70.7898
17/11/2019 04:00,-70.7298
17/11/2019 04:30,-70.708
17/11/2019 05:00,-70.743
17/11/2019 05:30,-70.758
17/11/2019 06:00,-70.8014
17/11/2019 06:30,-70.8264
17/11/2019 07:00,-70.9386
17/11/2019 07:30,-71.075
17/11/2019 08:00,-71.375
17/11/2019 08:30,-71.375
17/11/2019 09:00,-71.775
17/11/2019 09:30,-71.65
17/11/2019 10:00,-71.833
17/11/2019 10:30,-71.767
17/11/2019 11:00,-72.067
17/11/2019 11:30,-72
17/11/2019 12:00,-71.975
17/11/2019 12:30,-71.858
17/11/2019 13:00,-72.058
17/11/2019 13:30,-72.467
17/11/2019 14:00,-72.375
17/11/2019 14:30,-72.375
17/11/2019 15:00,-72.375
17/11/2019 15:30,-71.975
17/11/2019 16:00,-71.625
17/11/2019 16:30,-71.95
17/11/2019 17:00,-71.042
17/11/2019 17:30,-70.9952
17/11/2019 18:00,-71.0316
17/11/2019 18:30,-71.2836
17/11/2019 19:00,-71.2686
17/11/2019 19:30,-71.302
17/11/2019 20:00,-71.3002
17/11/2019 20:30,-71.2052
17/11/2019 21:00,-71.2834
17/11/2019 21:30,-71.2748
17/11/2019 22:00,-71.3448
17/11/2019 22:30,-71.2698
17/11/2019 23:00,-71.3148
17/11/2019 23:30,-71.3264
18/11/2019 00:00,-71.3
18/11/2019 00:30,-71.305
18/11/2019 01:00,-71.335
18/11/2019 01:30,-71.3466
18/11/2019 02:00,-71.3216
18/11/2019 02:30,-71.3566
18/11/2019 03:00,-71.3116
18/11/2019 03:30,-71.3116
18/11/2019 04:00,-71.31
18/11/2019 04:30,-71.37
18/11/2019 05:00,-71.337